timestamp,wind_dir_avg,wind_spd_avg,wind_spd_max_dir,wind_spd_gust,battery_voltage,lat,long
2022-03-30 00:04:00+00:00,59.0,2.77,62.0,3.16,12.41,47.59359,-54.27349
2022-03-30 00:14:00+00:00,79.0,2.31,82.0,3.0,12.33,47.59359,-54.27349
2022-03-30 00:24:00+00:00,274.0,4.25,275.0,5.12,12.33,47.59359,-54.27349
2022-03-30 00:34:00+00:00,261.0,10.13,262.0,10.89,12.33,47.59359,-54.27349
2022-03-30 00:44:00+00:00,315.0,0.01,258.0,0.0,12.33,47.59359,-54.27349
2022-03-30 00:54:00+00:00,315.0,0.01,258.0,0.0,12.33,47.59359,-54.27349
2022-03-30 01:04:00+00:00,315.0,0.01,258.0,0.0,12.33,47.59359,-54.27349
2022-03-30 01:14:00+00:00,315.0,0.01,258.0,0.0,12.33,47.59359,-54.27349
2022-03-30 01:24:00+00:00,315.0,0.01,258.0,0.0,12.33,47.59359,-54.27349
2022-03-30 01:34:00+00:00,315.0,0.01,258.0,0.0,12.33,47.59359,-54.27349
2022-03-30 01:44:00+00:00,315.0,0.01,258.0,0.0,12.33,47.59359,-54.27349
2022-03-30 01:54:00+00:00,315.0,0.01,258.0,0.0,12.33,47.59359,-54.27349
2022-03-30 02:04:00+00:00,315.0,0.01,258.0,0.0,12.33,47.59359,-54.27349
2022-03-30 02:14:00+00:00,315.0,0.01,258.0,0.0,12.25,47.59359,-54.27349
2022-03-30 02:24:00+00:00,315.0,0.01,258.0,0.0,12.25,47.59359,-54.27349
2022-03-30 02:34:00+00:00,251.0,10.36,251.0,11.41,12.25,47.59359,-54.27349
2022-03-30 02:44:00+00:00,250.0,9.75,253.0,10.88,12.25,47.59359,-54.27349
2022-03-30 02:54:00+00:00,253.0,8.47,254.0,10.69,12.25,47.59359,-54.27349
2022-03-30 03:04:00+00:00,252.0,10.44,250.0,11.3,12.25,47.59359,-54.27349
2022-03-30 03:14:00+00:00,261.0,9.28,262.0,10.97,12.25,47.59359,-54.27349
2022-03-30 03:24:00+00:00,254.0,8.34,256.0,9.75,12.25,47.59359,-54.27349
2022-03-30 03:34:00+00:00,243.0,8.48,251.0,10.43,12.25,47.59359,-54.27349
2022-03-30 03:44:00+00:00,248.0,9.66,254.0,11.25,12.25,47.59359,-54.27349
2022-03-30 03:54:00+00:00,238.0,7.87,249.0,10.61,12.25,47.59359,-54.27349
2022-03-30 04:04:00+00:00,244.0,8.46,252.0,10.78,12.25,47.59359,-54.27349
2022-03-30 04:14:01+00:00,249.0,7.84,257.0,10.07,12.25,47.59359,-54.27349
2022-03-30 04:24:01+00:00,247.0,8.56,253.0,10.8,12.25,47.59359,-54.27349
2022-03-30 04:34:01+00:00,245.0,9.06,243.0,12.16,12.25,47.59359,-54.27349
2022-03-30 04:44:01+00:00,243.0,9.4,245.0,12.3,12.25,47.59359,-54.27349
2022-03-30 04:54:01+00:00,246.0,8.84,250.0,11.96,12.25,47.59359,-54.27349
2022-03-30 05:04:01+00:00,244.0,11.12,253.0,15.92,12.25,47.59359,-54.27349
2022-03-30 05:14:01+00:00,234.0,10.53,238.0,12.11,12.17,47.59359,-54.27349
2022-03-30 05:24:01+00:00,241.0,10.99,237.0,13.22,12.17,47.59359,-54.27349
2022-03-30 05:34:01+00:00,242.0,10.59,252.0,14.0,12.17,47.59359,-54.27349
2022-03-30 05:44:01+00:00,247.0,13.51,252.0,17.76,12.17,47.59359,-54.27349
2022-03-30 05:54:01+00:00,237.0,10.02,241.0,12.4,12.17,47.59359,-54.27349
2022-03-30 06:04:01+00:00,249.0,10.89,249.0,13.46,12.17,47.59359,-54.27349
2022-03-30 06:14:00+00:00,246.0,9.82,253.0,12.45,12.17,47.59359,-54.27349
2022-03-30 06:24:00+00:00,241.0,8.98,245.0,12.0,12.17,47.59359,-54.27349
2022-03-30 06:34:00+00:00,243.0,10.36,252.0,11.98,12.17,47.59359,-54.27349
2022-03-30 06:44:00+00:00,245.0,12.28,251.0,16.64,12.17,47.59359,-54.27349
2022-03-30 06:54:00+00:00,243.0,10.26,238.0,12.63,12.17,47.59359,-54.27349
2022-03-30 07:04:00+00:00,241.0,9.83,242.0,11.95,12.17,47.59359,-54.27349
2022-03-30 07:14:01+00:00,240.0,9.49,238.0,11.19,12.09,47.59359,-54.27349
2022-03-30 07:24:01+00:00,236.0,10.68,238.0,12.48,12.09,47.59359,-54.27349
2022-03-30 07:34:01+00:00,243.0,10.17,246.0,11.72,12.09,47.59359,-54.27349
2022-03-30 07:44:01+00:00,241.0,10.35,243.0,12.77,12.09,47.59359,-54.27349
2022-03-30 07:54:01+00:00,238.0,10.09,245.0,12.08,12.09,47.59359,-54.27349
2022-03-30 08:04:01+00:00,241.0,10.13,245.0,12.45,12.09,47.59359,-54.27349
2022-03-30 08:14:01+00:00,238.0,9.81,240.0,12.0,12.09,47.59359,-54.27349
2022-03-30 08:24:01+00:00,234.0,9.92,233.0,12.29,12.09,47.59359,-54.27349
2022-03-30 08:34:01+00:00,238.0,10.05,236.0,11.94,12.09,47.59359,-54.27349
2022-03-30 08:44:01+00:00,240.0,9.15,244.0,10.98,12.09,47.59359,-54.27349
2022-03-30 08:54:01+00:00,230.0,9.97,234.0,11.66,12.09,47.59359,-54.27349
2022-03-30 09:04:01+00:00,235.0,9.82,237.0,11.6,12.09,47.59359,-54.27349
2022-03-30 09:14:01+00:00,233.0,10.21,219.0,12.22,12.09,47.59359,-54.27349
2022-03-30 09:24:01+00:00,234.0,10.16,234.0,11.69,12.09,47.59359,-54.27349
2022-03-30 09:34:01+00:00,232.0,10.26,237.0,12.34,12.09,47.59359,-54.27349
2022-03-30 09:44:01+00:00,233.0,10.43,235.0,12.21,12.09,47.59359,-54.27349
2022-03-30 09:54:01+00:00,233.0,10.27,236.0,12.5,12.09,47.59359,-54.27349
2022-03-30 10:04:01+00:00,230.0,9.95,237.0,11.72,12.09,47.59359,-54.27349
2022-03-30 10:14:01+00:00,225.0,11.04,229.0,13.97,12.25,47.59359,-54.27349
2022-03-30 10:24:01+00:00,231.0,10.43,238.0,12.5,12.25,47.59359,-54.27349
2022-03-30 10:34:01+00:00,228.0,10.99,233.0,13.35,12.25,47.59359,-54.27349
2022-03-30 10:44:01+00:00,232.0,10.55,231.0,12.44,12.25,47.59359,-54.27349
2022-03-30 10:54:01+00:00,230.0,11.54,229.0,12.61,12.25,47.59359,-54.27349
2022-03-30 11:04:01+00:00,229.0,10.91,235.0,12.37,12.25,47.59359,-54.27349
2022-03-30 11:14:00+00:00,230.0,10.65,233.0,12.63,13.44,47.59359,-54.27349
2022-03-30 11:24:00+00:00,230.0,10.61,231.0,12.74,13.44,47.59359,-54.27349
2022-03-30 11:34:00+00:00,236.0,10.45,240.0,12.06,13.44,47.59359,-54.27349
2022-03-30 11:44:00+00:00,233.0,11.43,243.0,17.65,13.44,47.59359,-54.27349
2022-03-30 11:54:00+00:00,233.0,11.7,233.0,13.74,13.44,47.59359,-54.27349
2022-03-30 12:04:00+00:00,233.0,10.96,230.0,14.23,13.44,47.59359,-54.27349
2022-03-30 12:14:00+00:00,232.0,11.92,234.0,13.55,14.0,47.59359,-54.27349
2022-03-30 12:24:00+00:00,232.0,11.15,234.0,13.48,14.0,47.59359,-54.27349
2022-03-30 12:34:00+00:00,231.0,10.41,237.0,12.45,14.0,47.59359,-54.27349
2022-03-30 12:44:00+00:00,235.0,10.7,241.0,12.74,14.0,47.59359,-54.27349
2022-03-30 12:54:00+00:00,231.0,10.89,222.0,13.41,14.0,47.59359,-54.27349
2022-03-30 13:04:00+00:00,229.0,10.5,232.0,13.21,14.0,47.59359,-54.27349
2022-03-30 13:14:01+00:00,226.0,11.53,228.0,14.49,13.84,47.59359,-54.27349
2022-03-30 13:24:01+00:00,230.0,11.2,234.0,13.43,13.84,47.59359,-54.27349
2022-03-30 13:34:01+00:00,231.0,12.63,229.0,14.28,13.84,47.59359,-54.27349
2022-03-30 13:44:01+00:00,231.0,11.56,225.0,13.41,13.84,47.59359,-54.27349
2022-03-30 13:54:01+00:00,248.0,13.82,250.0,17.72,13.84,47.59359,-54.27349
2022-03-30 14:04:01+00:00,237.0,11.95,242.0,13.91,13.84,47.59359,-54.27349
2022-03-30 14:14:01+00:00,230.0,11.71,232.0,13.24,13.68,47.59359,-54.27349
2022-03-30 14:24:01+00:00,236.0,11.04,235.0,13.25,13.68,47.59359,-54.27349
2022-03-30 14:34:01+00:00,234.0,10.37,239.0,11.94,13.68,47.59359,-54.27349
2022-03-30 14:44:01+00:00,228.0,11.12,225.0,13.79,13.68,47.59359,-54.27349
2022-03-30 14:54:01+00:00,228.0,11.24,224.0,13.44,13.68,47.59359,-54.27349
2022-03-30 15:04:01+00:00,230.0,11.2,223.0,12.63,13.68,47.59359,-54.27349
2022-03-30 15:14:01+00:00,228.0,11.97,226.0,13.11,14.08,47.59359,-54.27349
2022-03-30 15:24:01+00:00,222.0,11.92,223.0,13.28,14.08,47.59359,-54.27349
2022-03-30 15:34:01+00:00,223.0,11.66,232.0,14.0,14.08,47.59359,-54.27349
2022-03-30 15:44:01+00:00,230.0,10.53,235.0,12.4,14.08,47.59359,-54.27349
2022-03-30 15:54:01+00:00,215.0,12.87,214.0,14.6,14.08,47.59359,-54.27349
2022-03-30 16:04:01+00:00,223.0,11.2,226.0,13.71,14.08,47.59359,-54.27349
2022-03-30 16:14:00+00:00,235.0,10.51,226.0,13.23,13.76,47.59359,-54.27349
2022-03-30 16:24:00+00:00,230.0,10.33,234.0,11.5,13.76,47.59359,-54.27349
2022-03-30 16:34:00+00:00,240.0,9.58,248.0,12.0,13.76,47.59359,-54.27349
2022-03-30 16:44:00+00:00,246.0,9.23,242.0,10.32,13.76,47.59359,-54.27349
2022-03-30 16:54:00+00:00,240.0,9.46,243.0,11.77,13.76,47.59359,-54.27349
2022-03-30 17:04:00+00:00,234.0,10.82,238.0,12.56,13.76,47.59359,-54.27349
2022-03-30 18:14:01+00:00,228.0,10.79,234.0,12.45,13.68,47.59359,-54.27349
2022-03-30 18:24:01+00:00,222.0,11.36,225.0,14.0,13.68,47.59359,-54.27349
2022-03-30 18:34:01+00:00,226.0,12.15,228.0,13.9,13.68,47.59359,-54.27349
2022-03-30 18:44:01+00:00,231.0,11.7,234.0,13.22,13.68,47.59359,-54.27349
2022-03-30 18:54:01+00:00,229.0,11.23,235.0,12.72,13.68,47.59359,-54.27349
2022-03-30 19:04:01+00:00,233.0,11.3,236.0,12.57,13.68,47.59359,-54.27349
2022-03-30 19:14:00+00:00,232.0,11.83,227.0,12.92,14.0,47.59359,-54.27349
2022-03-30 19:24:00+00:00,235.0,11.41,234.0,12.92,14.0,47.59359,-54.27349
2022-03-30 19:34:00+00:00,236.0,10.25,239.0,11.89,14.0,47.59359,-54.27349
2022-03-30 19:44:00+00:00,234.0,10.34,236.0,12.2,14.0,47.59359,-54.27349
2022-03-30 19:54:00+00:00,245.0,10.36,250.0,13.18,14.0,47.59359,-54.27349
2022-03-30 20:04:00+00:00,231.0,9.59,237.0,13.52,14.0,47.59359,-54.27349
2022-03-30 20:14:01+00:00,233.0,9.87,235.0,12.24,13.53,47.59359,-54.27349
2022-03-30 20:24:01+00:00,230.0,9.78,236.0,12.77,13.53,47.59359,-54.27349
2022-03-30 20:34:01+00:00,233.0,9.95,243.0,11.62,13.53,47.59359,-54.27349
2022-03-30 20:44:01+00:00,232.0,9.61,241.0,11.62,13.53,47.59359,-54.27349
2022-03-30 20:54:01+00:00,238.0,11.05,233.0,12.76,13.53,47.59359,-54.27349
2022-03-30 21:04:01+00:00,237.0,11.05,247.0,15.46,13.53,47.59359,-54.27349
2022-03-30 21:14:01+00:00,234.0,9.89,239.0,12.88,13.44,47.59359,-54.27349
2022-03-30 21:24:01+00:00,235.0,9.7,247.0,13.96,13.44,47.59359,-54.27349
2022-03-30 21:34:01+00:00,235.0,9.4,238.0,12.37,13.44,47.59359,-54.27349
2022-03-30 21:44:01+00:00,232.0,9.6,240.0,12.12,13.44,47.59359,-54.27349
2022-03-30 21:54:01+00:00,230.0,10.24,233.0,12.73,13.44,47.59359,-54.27349
2022-03-30 22:04:01+00:00,232.0,10.31,238.0,13.27,13.44,47.59359,-54.27349
2022-03-30 22:14:00+00:00,227.0,10.69,228.0,13.04,12.81,47.59359,-54.27349
2022-03-30 22:24:00+00:00,229.0,10.34,235.0,12.62,12.81,47.59359,-54.27349
2022-03-30 22:34:00+00:00,228.0,10.6,222.0,13.25,12.81,47.59359,-54.27349
2022-03-30 22:44:00+00:00,229.0,10.76,232.0,12.77,12.81,47.59359,-54.27349
2022-03-30 22:54:00+00:00,226.0,9.7,239.0,12.3,12.81,47.59359,-54.27349
2022-03-30 23:04:00+00:00,227.0,9.75,237.0,12.24,12.81,47.59359,-54.27349
2022-03-30 23:14:01+00:00,227.0,10.92,242.0,15.27,12.41,47.59359,-54.27349
2022-03-30 23:24:01+00:00,228.0,10.14,232.0,13.51,12.41,47.59359,-54.27349
2022-03-30 23:34:01+00:00,230.0,9.66,238.0,13.03,12.41,47.59359,-54.27349
2022-03-30 23:44:01+00:00,226.0,10.24,228.0,13.02,12.41,47.59359,-54.27349
2022-03-30 23:54:01+00:00,232.0,10.27,236.0,12.37,12.41,47.59359,-54.27349
